STARLINK-34823, 65355

Orbit data source: Space-Track

STARLINK-34823, 65355 is a payload satellite owned by SpaceX/Seattle (US) in LEO that was launched on Thu, 28 Aug 2025 UTC via an FALCON 9 launch vehicle from the Air Force Eastern Test Range (AFETR). Payload-class satellites include a variety of spacecraft equipped with specific instruments for various scientific and technological missions. These include communications satellites like Starlink; space stations such as the ISS; scientific satellites like the Hubble; Earth observation satellites from companies like Planet Labs, Umbra, and HawkEye 360; GPS; miniature CubeSats for education and research; and military/defense satellites.

Loading next visibility...
Identifier
65355, 2025-190E
Orbit
LEO
Country
Flag of USUS
Related business
Manufacturer
SpaceX/Seattle
Mission
Operational Commercial Communications
Bus & Motor
STARLINK V2MO, Unknown motor
Mass
575 kg wet, ~530 kg dry
Launch date (UTC)
2025-08-28 (7 months ago)
Launch vehicle
FALCON 9
Launch site
Air Force Eastern Test Range (AFETR)
Object type
Payload
Rocket body
Debris
Shape & HBR
Box + 2 Pan, 17.7 m
Radar Cross Section
36.964 m², Large (>1 m²)

Expand to show TLE details & history
Last TLE update: 10 hours ago

TLE from 10 hours ago
0 STARLINK-34823
1 65355U 25190E   26094.14377893  .00043119  00000-0  14587-2 0  9999
2 65355  53.1607  49.8509 0002229 148.1969 211.9167 15.30216534 33650
Epoch: 2026-04-04T03:27Z
TLE epoch observation values (Epoch: 2026-04-04T03:27:02.499Z)
Latitude
-0°
Longitude
165.62271°
Altitude
477.362 km
Speed
7.628 km/s
True Right ascension
03h 19m 24s
True Declination
0° 00' 00"
Sunlit
Object was in daylight at epoch
Visualization orbit readout
Latitude
Unknown
Longitude
Unknown
Altitude
Unknown
Speed
Unknown
Apparent Right ascension
Unknown
Apparent Declination
Unknown
Sunlit
N/A
Visualization observer readout
Local Sidereal Time
19:33:33
Azimuth
Unknown
Elevation
Unknown
Doppler factor
Unknown
Orbital elements
Apogee altitude
476.95 km
Perigee altitude
473.894 km
Semi-major axis
6,853.559 km
Eccentricity
0.00022
Inclination
53.1607°
RAAN
49.8509°
Arg. of periapsis
148.1969°
True anomaly
211.9032°
Mean anomaly
211.9167°
Eccentric anomaly
211.90995°
Mean motion
3.82533 °/min
Orbital period
94.11 mins
BSTAR
0.0014587
Loading maneuver chart data...
Computing Atmospheric mass density...
Loading historical data...
Loading historical data...
Loading historical data...
Loading historical data...
Loading historical data...
Loading historical data...
Loading historical data...

Documentation

Showing up to 5 results
|